Weather in Chkalovskiy

Russia / Republic of Karelia     66°17′53″N   33°23′37″E
temp.,
°C
wind,
m/s
gust,
m/s
humid.,
%
clouds,
%
prec.,
mm/h
press.,
hPa
HPBL,
m
28 february, sun
sun2800:00−8wsw239158 0.0 101055
03:00−5ssw259079 0.0 1009116
06:00−6sw3595100 0.0 1007130
09:00−6wsw259599 0.0 100899
12:00−3w369474 0.0 1009269
15:000wsw369441 0.0 1009272
18:00−1wsw499155 0.0 1008251
21:00+1wsw5128774 0.0 1007404
1 march, mon
mon100:00+1wsw51289100 0.0 1004393
03:00+2wsw61692100 0.0 1003581
06:00+2w61491100 0.0 1000561
09:00+2w51486100 0.0 1000752
12:00+2wnw5148666 0.0 998838
15:00+2w5138433 0.0 998919
18:000w515800 0.0 996722
21:000w6167917 0.0 9951056
2 march, tue
tue200:00−1wnw71482100 0.0 9951077
03:00−1wnw61483100 0.0 9971022
06:00−3wnw51386100 0.0 998778
09:00−5nw5148389 0.0 1000593
12:00−4nw612820 0.0 1002839
15:00−3nw6128017 0.0 1005996
18:00−5nw615790 0.0 1006654
21:00−7wnw413840 0.0 1008391
3 march, wed
wed300:00−6wnw4128558 0.0 1007368
03:00−7wnw4109057 0.1 1007275
06:00−9w369215 0.0 1006119
09:00−7w489247 0.0 1005251
12:00−4wnw4990100 0.1 1002501
15:00−3wnw249267 0.1 1000414
18:00−8ene229633 0.0 99821
21:00−8nne239367 0.0 99772
4 march, thu
thu400:00−11n249494 0.0 99782
03:00−13nw369347 0.0 998112
06:00−10nw3119122 0.0 997302
09:00−8nnw499159 0.1 998438
12:00−7nne4893100 0.8 999662
15:00−7nne3593100 0.9 1001513
18:00−8nw2296100 0.2 100231
21:00−10nw2293100 0.2 100322